Regional Weather Roundup
Issued by NWS

Home | Current Version | Previous Version | Text Only | Print | Product List | Glossary On
Versions: 1 2 3 4 5 6 7 8 9 10 11 12 13 14 15 16 17 18 19 20 21 22 23 24 25 26 27 28 29 30 31 32 33 34 35 36 37 38 39 40 41 42 43 44 45 46 47 48 49 50
064
ASUS44 KEWX 221203
RWRTX
SOUTH TEXAS REGIONAL WEATHER ROUNDUP
NATIONAL WEATHER SERVICE AUSTIN/SAN ANTONIO TX
700 AM CDT SAT JUL 22 2017

NOTE: "FAIR" INDICATED FEW OR NO CLOUDS BELOW 12,000 FEET WITH NO
SIGNIFICANT WEATHER AND/OR OBSTRUCTIONS TO VISIBILITY.

* - THESE STATIONS ARE NOT NWS OR FAA STATIONS...AND ARE NOT SUBJECT
    TO NWS AND FAA QUALITY CONTROL.

TXZ171-172-183>190-221300-
TEXAS HILL COUNTRY AND EDWARDS PLATEAU

CITY           SKY/WX    TMP DP  RH WIND       PRES   REMARKS
JUNCTION       CLEAR     76  69  79 SE3       30.01R
6HR MIN TEMP:  76; 6HR MAX TEMP:  84;

*LLANO         CLEAR     73  68  83 CALM      30.01S
BURNET         PTCLDY    76  69  79 S6        30.01S
6HR MIN TEMP:  76; 6HR MAX TEMP:  85;

*HORSESHOE BAY PTCLDY    76  70  82 CALM      29.99S
6HR MIN TEMP:  74; 6HR MAX TEMP:  84;

*KERRVILLE     CLEAR     73  71  93 CALM      30.02S
6HR MIN TEMP:  73; 6HR MAX TEMP:  82;

*FREDERICKSBRG CLEAR     73  67  84 CALM      30.02S
6HR MIN TEMP:  73; 6HR MAX TEMP:  81;

*ROCKSPRINGS     N/A     73  73 100 SE7       30.05S
*BOERNE STAGE  CLEAR     72  70  94 CALM      30.02S
*CASTROVILLE   CLEAR     75  73  92 NE3       30.00R
HONDO          CLEAR     75  71  87 NE6       29.99R
6HR MIN TEMP:  74; 6HR MAX TEMP:  84;

*UVALDE        CLEAR     73  70  91 CALM      29.98R
6HR MIN TEMP:  73; 6HR MAX TEMP:  83;

DEL RIO        CLEAR     78  71  79 E8        29.94S
6HR MIN TEMP:  78; 6HR MAX TEMP:  87;

LAUGHLIN AFB   NOT AVBL
CARRIZO SPRGS  CLEAR     77  70  78 E3        29.93R
*EAGLE PASS      N/A    N/A N/A N/A MISG        N/A
$$

TXZ173-191>194-202-209-217>225-228-221300-
CENTRAL AND SOUTH CENTRAL TEXAS

CITY           SKY/WX    TMP DP  RH WIND       PRES   REMARKS
GEORGETOWN     CLEAR     77  72  83 S9        29.97
AUSTIN/BERGSTM PTCLDY    77  75  93 S7        29.97R
6HR MIN TEMP:  75; 6HR MAX TEMP:  83;

AUSTIN/MABRY   CLEAR     77  74  90 S3        29.98S
6HR MIN TEMP:  77; 6HR MAX TEMP:  84;

*AUSTIN/EXEC     N/A     75  75 100 SW8       29.98R
*LAGO VISTA    CLEAR     77  72  83 SW6       30.00S
6HR MIN TEMP:  77; 6HR MAX TEMP:  83;

SAN MARCOS     CLEAR     75  72  88 SW5       29.99S
6HR MIN TEMP:  73; 6HR MAX TEMP:  81;

NEW BRAUNFELS  CLEAR     74  73  97 SW5       29.97S
6HR MIN TEMP:  73; 6HR MAX TEMP:  81;

RANDOLPH AFB   LGT RAIN  74  74 100 CALM      29.98S
6HR MIN TEMP:  73; 6HR MAX TEMP:  80; 6HR PCP: TRACE;

PT SAN ANTONIO CLEAR     76  73  90 SE5       29.97R
6HR MIN TEMP:  76; 6HR MAX TEMP:  81;

SAN ANTONIO    PTCLDY    77  73  87 S6        29.99S
6HR MIN TEMP:  75; 6HR MAX TEMP:  82;

STINSON FIELD  CLEAR     77  73  87 CALM      29.96S
6HR MIN TEMP:  77; 6HR MAX TEMP:  82;

*LA GRANGE     CLEAR     77  76  96 CALM      29.95R
6HR MIN TEMP:  77; 6HR MAX TEMP:  82;

*GIDDINGS      PTCLDY    75  73  93 SW5       29.98R
6HR MIN TEMP:  75; 6HR MAX TEMP:  81;

*GONZALES      PTCLDY    76  76 100 SW6       29.97S
6HR MIN TEMP:  76; 6HR MAX TEMP:  81;

$$

TXZ163>164-176>182-195>201-210>213-226-227-235-221300-
SOUTHEAST TEXAS

CITY           SKY/WX    TMP DP  RH WIND       PRES   REMARKS
COLLEGE STN    CLEAR     77  75  93 S6        29.97R
6HR MIN TEMP:  77; 6HR MAX TEMP:  82;

*BRYAN         CLEAR     76  76 100 S5        29.98R
6HR MIN TEMP:  76; 6HR MAX TEMP:  81;

*CALDWELL      NOT AVBL
*CROCKETT      CLEAR     75  73  94 CALM      30.00S
*BRENHAM       CLEAR     77  76  97 CALM      29.97S
6HR MIN TEMP:  77; 6HR MAX TEMP:  82;

HUNTSVILLE     CLEAR     78  74  87 S6        29.98R
6HR MIN TEMP:  78; 6HR MAX TEMP:  81;

CONROE         PTCLDY    73  72  96 CALM      29.98R
6HR MIN TEMP:  73; 6HR MAX TEMP:  77;

HOUSTON BUSH   PTCLDY    77  75  93 CALM      29.97S
6HR MIN TEMP:  76; 6HR MAX TEMP:  82;

HOUSTON HOBBY  CLOUDY    80  75  84 CALM      29.96S
6HR MIN TEMP:  80; 6HR MAX TEMP:  83;

*HOUSTON SW AP CLOUDY    74  73  97 CALM      29.97S
6HR MIN TEMP:  73; 6HR MAX TEMP:  76;

PEARLAND       CLOUDY    80  75  84 CALM      29.98S
6HR MIN TEMP:  79; 6HR MAX TEMP:  82;

HOUSTON HOOKS  CLOUDY    77  75  93 CALM      29.97S
6HR MIN TEMP:  76; 6HR MAX TEMP:  81;

ELLINGTON FLD  NOT AVBL
SUGAR LAND     CLOUDY    77  75  93 CALM      29.96S
6HR MIN TEMP:  77; 6HR MAX TEMP:  81;

*HOUSTON EXEC  CLOUDY    75  75 100 S3        29.97F
*CLEVELAND MUN CLOUDY    74  73  96 CALM      29.99R FOG
6HR MIN TEMP:  73; 6HR MAX TEMP:  76;

*WHARTON       CLEAR     73  72  95 CALM      29.97S FOG
6HR MIN TEMP:  73; 6HR MAX TEMP:  76;

*COLUMBUS      FAIR      76  74  95 CALM      29.97S
6HR MIN TEMP:  75; 6HR MAX TEMP:  79;

*EAGLE LAKE    SUNNY     76  76 100 CALM      29.96S
6HR MIN TEMP:  76; 6HR MAX TEMP:  80;

$$

TXZ214>216-236>238-221300-
THE UPPER TEXAS COAST

CITY           SKY/WX    TMP DP  RH WIND       PRES   REMARKS
*ORANGE        PTCLDY    76  76 100 CALM      30.00R FOG
6HR MIN TEMP:  76; 6HR MAX TEMP:  78;

PORT ARTHUR    PTCLDY    76  75  97 CALM      29.97R
6HR MIN TEMP:  75; 6HR MAX TEMP:  78;

GALVESTON      CLOUDY    83  80  91 W6        29.97R THUNDER HX  95
6HR MIN TEMP:  82; 6HR MAX TEMP:  85; 6HR PCP:  0.04;

ANGLETON       PTCLDY    76  75  97 CALM      29.96F
6HR MIN TEMP:  75; 6HR MAX TEMP:  79;

*BAY CITY      CLEAR     77  76  96 CALM      29.96R
PALACIOS       CLEAR     82  76  81 SW10      29.95S
6HR MIN TEMP:  82; 6HR MAX TEMP:  83;

$$

TXZ229>234-239>247-221300-
TEXAS COASTAL BEND AND RIO GRANDE PLAINS

CITY           SKY/WX    TMP DP  RH WIND       PRES   REMARKS
VICTORIA       CLEAR     76  74  93 S3        29.96S
6HR MIN TEMP:  76; 6HR MAX TEMP:  79;

*BEEVILLE      CLEAR    N/A N/A N/A SE3       29.96S
ROCKPORT       MOCLDY    83  75  77 S7        29.95R HX  90
6HR MIN TEMP:  82; 6HR MAX TEMP:  85;

*PORT ARANSAS  CLEAR     82  73  74 S12       29.95S
6HR MIN TEMP:  82; 6HR MAX TEMP:  84;

*PORT LAVACA   PTCLDY    78  74  90 S3        29.96S
6HR MIN TEMP:  77; 6HR MAX TEMP:  78;

*INGLESIDE     CLEAR     83  77  83 MISG      29.95R HX  91
CORPUS CHRISTI PTCLDY    75  75 100 S6        29.94F
6HR MIN TEMP:  75; 6HR MAX TEMP:  80;

CORPUS NAS     MOCLDY    81  77  88 S6        29.94S
6HR MIN TEMP:  81; 6HR MAX TEMP:  85;

*ROBSTOWN      CLEAR     77  50  39 SE5       29.95S
6HR MIN TEMP:  77; 6HR MAX TEMP:  81;

ALICE          CLEAR     74  73  97 SE3       29.94S
6HR MIN TEMP:  74; 6HR MAX TEMP:  79;

KINGSVILLE NAS CLEAR     77  77 100 SE7       29.95R
6HR MIN TEMP:  77; 6HR MAX TEMP:  80;

COTULLA        CLEAR     76  72  87 SE8       29.94R
6HR MIN TEMP:  76; 6HR MAX TEMP:  84;

*FAITH RANCH   CLEAR     79  70  73 SE9       29.93S
LAREDO         CLEAR     79  72  79 SE5         N/A
6HR MIN TEMP:  79; 6HR MAX TEMP:  86;

$$

TXZ248>255-221300-
DEEP SOUTH TEXAS

CITY           SKY/WX    TMP DP  RH WIND       PRES   REMARKS
BROWNSVILLE    PTCLDY    78  76  93 SE6       29.95R
6HR MIN TEMP:  77; 6HR MAX TEMP:  79;

PORT ISABEL    PTCLDY    79  77  94 S6        29.94R
6HR MIN TEMP:  79; 6HR MAX TEMP:  82;

*SOUTH PADRE   NOT AVBL
HARLINGEN      CLEAR     77  76  96 SE8       29.93R
6HR MIN T



USA.gov is the U.S. government's official web portal to all federal, state and local government web resources and services.